This demonstration page uses our WeatherBlox Daily Observations layout. Learn more.

Left ArrowRight Arrow

44.31136, -96.79839

Hourly Observations for September 11, 2021

Temp ( °F °C ) Dew Point ( °F °C ) Humidity (%) Winds ( mph kmh ) Pressure ( in mb ) Visibility ( mi km ) Precip ( " mm )
12:56 am 00:56 Clear 65 18.3 62 16.7 90 90 S 6 9 29.88 1012 10 16 0.00 0.00
1:56 am 01:56 Clear 64 17.8 62 16.7 93 93 SE 3 6 29.88 1012 10 16 0.00 0.00
2:56 am 02:56 Clear 65 18.3 62 16.7 90 90 SSW 3 6 29.88 1012 10 16 0.00 0.00
3:56 am 03:56 Clear 63 17.2 61 16.1 93 93 Calm 29.87 1011 9 14 0.00 0.00
4:56 am 04:56 Clear 62 16.7 61 16.1 96 96 SE 7 11 29.86 1011 7 11 0.00 0.00
5:56 am 05:56 Clear with Mist and Fog 62 16.7 60 15.6 93 93 SE 5 7 29.86 1011 5 8 0.00 0.00
6:56 am 06:56 Clear with Mist and Fog 59 15 58 14.4 96 96 Calm 29.90 1013 5 8 0.00 0.00
7:13 am 07:13 Partly Cloudy with Mist and Fog 59 15 57 14 94 94 NNW 14 22 29.88 1012 3 4 0.00 0.00
7:39 am 07:39 Partly Cloudy with Mist and Fog 61 16 61 16 100 100 NE 3 6 29.87 1012 3 5 0.00 0.00
7:56 am 07:56 Sunny with Mist and Fog 62 16.7 60 15.6 93 93 ENE 5 7 29.91 1013 3 5 0.00 0.00
8:56 am 08:56 Sunny 65 18.3 59 15 81 81 NNE 12 19 29.93 1014 10 16 0.00 0.00
9:56 am 09:56 Sunny 65 18.3 57 13.9 76 76 N 3 6 29.94 1014 10 16 0.00 0.00
10:56 am 10:56 Sunny 67 19.4 58 14.4 73 73 ENE 8 13 29.94 1014 10 16 0.00 0.00
11:56 am 11:56 Sunny 70 21.1 58 14.4 66 66 NE 13 20 29.92 1013 10 16 0.00 0.00
12:56 pm 12:56 Sunny 73 22.8 58 14.4 59 59 NE 13 20 29.91 1013 10 16 0.00 0.00
1:56 pm 13:56 Sunny 76 24.4 59 15 56 56 ENE 12 19 29.91 1013 10 16 0.00 0.00
2:56 pm 14:56 Sunny 77 25 59 15 54 54 NE 12 19 29.91 1013 10 16 0.00 0.00
3:56 pm 15:56 Sunny 76 24.4 57 13.9 52 52 E 16 26 29.86 1011 10 16 0.00 0.00
4:56 pm 16:56 Sunny 76 24.4 56 13.3 50 50 ENE 12 19 29.88 1012 10 16 0.00 0.00
5:56 pm 17:56 Sunny 75 23.9 54 12.2 48 48 NE 14 22 29.90 1013 10 16 0.00 0.00
6:56 pm 18:56 Sunny 71 21.7 51 10.6 49 49 NE 10 17 29.92 1013 10 16 0.00 0.00
7:56 pm 19:56 Mostly Cloudy 68 20 50 10 53 53 NNE 8 13 29.94 1014 10 16 0.00 0.00
8:56 pm 20:56 Cloudy 66 18.9 51 10.6 59 59 NNE 8 13 29.96 1014 10 16 0.00 0.00
9:56 pm 21:56 Cloudy 64 17.8 50 10 60 60 N 7 11 29.99 1016 10 16 0.00 0.00
10:56 pm 22:56 Cloudy 61 16.1 50 10 67 67 N 6 9 30.01 1016 10 16 0.00 0.00
11:56 pm 23:56 Mostly Cloudy 63 17.2 46 7.8 54 54 NE 9 15 29.99 1016 10 16 0.00 0.00

Powered by AerisWeather